Location: Lane
(33.5226°N, 79.8788°W)
Time: 04:19:03
(UTC+00:00)

Tiros 1 despin weight - Pass Details

Date: 11 October 2022
Orbit: 590 x 637 km, 48.2° (Epoch: 30 November)

Event Time Altitude Azimuth Distance (km) Brightness Sun altitude
Rises 22:04:29 0° 315° (NW) 2,851 ? 8.6°
Reaches altitude 10° 22:07:29 10° 336° (NNW) 1,957 ? 8.0°
Maximum altitude 22:10:27 17° 17° (NNE) 1,552 ? 7.4°
Drops below altitude 10° 22:13:27 10° 59° (ENE) 1,976 ? 6.8°
Sets 22:16:30 0° 80° (E) 2,891 ? 6.2°
